Terminal Aerodrome Forecast
Issued by NWS Detroit/Pontiac, MI

Home | Current Version | Previous Version | Text Only | Print | Product List | Glossary On
Versions: 1 2 3 4 5 6 7 8 9 10 11 12 13 14 15 16 17 18 19 20 21 22 23 24
000
FTUS43 KDTX 210536
TAFFNT
TAF
KFNT 210536Z 2106/2206 32008KT P6SM OVC015
     FM211400 36013G22KT P6SM OVC025
     FM211800 36015KT P6SM OVC050
     FM220100 02010KT P6SM SCT050=

USA.gov is the U.S. government's official web portal to all federal, state and local government web resources and services.